Flag for Dominican Republic Weather past 2 weeks in Santiago de los Caballeros, Dominican Republic

Now
88 °F

Partly sunny.


Feels Like: 94 °F
Forecast: N/A
Wind: 15 mph from Southeast

Location: Santiago

Current Time: Jul 2, 2015 at 6:02:21 PM

Latest Report: Jul 2, 2015 at 5:00 PM


Visibility: N/A

Pressure: 29.98 "Hg

Humidity: 59%

Dew point: 72 °F

Location of Santiago de los CaballerosLocation

Historic Weather in Santiago de los Caballeros — Graph

°F

Santiago de los Caballeros temperature yesterday

Maximum temperature yesterday: 88 °F (at 11:00 AM)
Minimum temperature yesterday: 73 °F (at 3:00 AM)
Average temperature yesterday: 80 °F

Past Weeks' High & Low Weather Summary

 TemperatureHumidityPressure
High93 °F (Jun 19, 4:00 PM)100% (Jun 19, 7:00 AM)30.15 "Hg (Jun 19, 7:00 AM)
Low70 °F (Jun 23, 7:00 AM)44% (Jun 21, 4:00 PM)29.95 "Hg (Jun 17, 4:00 PM)
Average81 °F76%30.07 "Hg
* Reported Jun 17 4:00 PM — Jul 2 4:00 PM, Santiago de los Caballeros, Weather by CustomWeather, © 2015

Note: Actual official high and low records may vary slightly from our data, if they occured in-between our weather recording intervals... More about our weather records

Advertising

Santiago de los Caballeros weather history for previous 24 hours

 ConditionsComfort  
Time TempWeatherWind HumidityBarometerVisibility
4:00 PM
Thu, Jul 2
90 °FScattered clouds.14 mph52%30.01 "HgN/A
3:00 PM91 °FPassing clouds.17 mph49%30.01 "HgN/A
2:00 PM91 °FPassing clouds.17 mph49%30.01 "HgN/A
1:00 PM90 °FPassing clouds.15 mph52%30.04 "HgN/A
12:00 PM88 °FScattered clouds.17 mph55%30.07 "HgN/A
11:00 AM86 °FScattered clouds.16 mph66%30.09 "HgN/A
10:00 AM84 °FScattered clouds.16 mph70%30.09 "HgN/A
9:00 AM81 °FPartly sunny.9 mph79%30.09 "HgN/A
8:00 AM77 °FPartly sunny.9 mph89%30.09 "HgN/A
7:00 AM75 °FPassing clouds.7 mph94%30.07 "HgN/A
6:00 AM75 °FPassing clouds.8 mph94%30.07 "HgN/A
5:00 AM73 °FPassing clouds.9 mph100%30.07 "HgN/A
3:00 AM73 °FPassing clouds.6 mph100%30.07 "HgN/A
1:09 AM81 °FPassing clouds.12 mph89%30.07 "HgN/A
12:00 AM77 °FPassing clouds.7 mph83%30.09 "HgN/A
11:00 PM
Wed, Jul 1
77 °FPassing clouds.7 mph83%30.09 "HgN/A
10:00 PM77 °FPassing clouds.7 mph83%30.09 "HgN/A
9:00 PM77 °FPassing clouds.9 mph83%30.07 "HgN/A
8:00 PM79 °FPassing clouds.9 mph84%30.07 "HgN/A
7:00 PM81 °FPartly sunny.7 mph70%30.04 "HgN/A
6:00 PM81 °FPartly sunny.16 mph74%30.04 "HgN/A
Weather by CustomWeather, © 2015

See weather overviewHow to use our weather pages